"Pseudo-MPEC" for P10Os5u

Created 2019 Jun 15 19:09:21 UT using Find_Orb

Click here for an explanation of pseudo-MPECs

 
 Astrometry: 
     P10Os5u  C2019 06 01N2Rbn;HrsB8]S`qf[J9`Ckg,pEB*0pq=YeX[]w.UsFlLaclBh+(1F51
     P10Os5u  C2019 06 01QJqGo9,Y/#vBB/WY,fiY2[,syRpg^xRi#jqP+%-[)jYcvE,02A_@F51
     P10Os5u  C2019 06 01n/a,.mO0pt\fJAlXnam'$C'0SmRIRLbh$J[.4,(JrRkdnfan**uoF51
     P10Os5u ^C2019 06 05.35941613 22 28.487+40 08 39.54   ~65Jb 22.36GVNEOCP568
     P10Os5u ^C2019 06 05.36036613 22 28.481+40 08 38.76   ~65Jb 22.27GVNEOCP568
     P10Os5u ^C2019 06 05.36132713 22 28.471+40 08 38.00   ~65Jb 22.34GVNEOCP568
     P10Os5u KC2019 06 068h!at'Y6o^:+Astrometryl)7NS/redacted;yNkG:KbbUF]$^%Y711
     P10Os5u KC2019 06 06FTa%jV=_achR7ubNjcu^4]GC*click^Bd[hrBHSe!nOCG@s/^GS!711
     P10Os5u KC2019 06 06w7iZ8gwia;J)3GQOq+H(o@!XYI1ZF#$Z;kSl4n-8wt_)$9T/bTkW711
     P10Os5u KC2019 06 06tm6S!h$lPt7)fKwtcOH#XL25X@'6:tHj[j``\6ZM@Fxqthere;FC291
     P10Os5u KC2019 06 06XI5D_md@]Y:c[^yKD_a4s4TsfH'Lfork+:5)S(nsf'g)K(gIA(^n291
     P10Os5u KC2019 06 06plh\r6=y[=^O,g)55VUD8XIAys'11w#S3viQu$HYSU6D6my,kk?:291
     P10Os5u ^C2019 06 132g)xnQGeRjpMnr`!'`8KP+$]Ppj\tX?NV32ZEd$okLA+NIFfNvK-695
     P10Os5u ^C2019 06 13YU#5E9dWY8hFr[=e_f02.:WbZ_8_lr:Ia_cKqv_B6_#.$=ti)\+C695
     P10Os5u ^C2019 06 13mGWS_E1VoMo2xfb%explanation*-eboCYC2bq_sr22LwhuJ7aIX695

Station data:
(291) LPL/Spacewatch II  (N31.961669 W111.599905)  US/Arizona.  Observers J.
   V. Scotti, R. S. McMillan. 1.8-m f/2.7 reflector + CCD.
(568) Mauna Kea  (N19.826116 W155.472200)  US/Hawaii.
(695) Kitt Peak  (N31.958398 W111.594670)  US/Arizona.
(711) McDonald Observatory, Fort Davis  (N30.671481 W104.021500)  US/Texas.
   0.76-m f/3.0 reflector.
(F51) Pan-STARRS 1, Haleakala  (N20.707235 W156.255910)  US/Hawaii.
   Observers N. Primak, A. Schultz, S. Watters, J. Thiel, T. Goggia. Measurer
   PS1 Science Consortium. 1.8-m Ritchey-Chrétien + CCD.

Orbital elements:  P10Os5u
   Perihelion 2020 Apr 13.246714 +/- 1.77 TT =  5:55:16 (JD 2458952.746714)
Epoch 2019 Jun 13.0 TT = JDT 2458647.5                        AutoNEOCP
M 287.16454497 +/- 0.7              (J2000 ecliptic)
n   0.23861175 +/- 0.00114          Peri.  187.51465 +/- 0.50
a   2.57439286 +/- 0.0082           Node   120.17566 +/- 0.08
e   0.2154068 +/- 0.00181           Incl.   36.24902 +/- 0.007
P   4.13                   H 17.6   G  0.15   U  8.2  
q 2.01985110 +/- 0.00273    Q 3.12893461 +/- 0.0144
From 15 observations 2019 June 1-13; mean residual 0".21
Residuals in arcseconds: 
190601 F51  .04+  .08-    190605 568  .10-  .24-    190606 291  .03+  .05+    
190601 F51  .04+  .11+    190606 711  .01-  .16+    190606 291  .36+  .26-    
190601 F51  .04-  .04+    190606 711  .14-  .84+    190613 695  .07+  .15-    
190605 568  .08-  .24-    190606 711  .05-  .19+    190613 695  .04-  .01-    
190605 568  .06-  .25-    190606 291  .03+  .28-    190613 695  .04-  .13+    

Ephemerides (geocentric):
Date (UTC) HH   RA              Dec         delta   r     elong  mag " sig PA
---- -- -- --  -------------   -----------  ------ ------ -----  --- ---- ---
2019 06 15 19  13 23 03.115   +37 39 22.10  2.2174 2.5208  95.2 22.5 .361  92
2019 06 15 20  13 23 03.607   +37 38 44.14  2.2177 2.5207  95.1 22.5 .366  92
2019 06 15 21  13 23 04.101   +37 38 06.15  2.2180 2.5206  95.1 22.5 .370  92
2019 06 15 22  13 23 04.598   +37 37 28.15  2.2182 2.5205  95.1 22.5 .375  92
2019 06 15 23  13 23 05.097   +37 36 50.14  2.2185 2.5204  95.1 22.5 .380  92
2019 06 16 00  13 23 05.600   +37 36 12.11  2.2187 2.5203  95.1 22.5 .384  92
2019 06 16 01  13 23 06.105   +37 35 34.07  2.2190 2.5202  95.0 22.5 .389  92
2019 06 16 02  13 23 06.612   +37 34 56.01  2.2193 2.5201  95.0 22.5 .394  92
2019 06 16 03  13 23 07.123   +37 34 17.93  2.2195 2.5200  95.0 22.5 .398  92
2019 06 16 04  13 23 07.636   +37 33 39.84  2.2198 2.5199  95.0 22.5 .403  92
2019 06 16 05  13 23 08.151   +37 33 01.73  2.2201 2.5198  94.9 22.5 .408  92
2019 06 16 06  13 23 08.670   +37 32 23.61  2.2203 2.5197  94.9 22.5 .412  92
2019 06 16 07  13 23 09.191   +37 31 45.47  2.2206 2.5196  94.9 22.5 .417  92
2019 06 16 08  13 23 09.715   +37 31 07.32  2.2209 2.5196  94.9 22.5 .422  92
2019 06 16 09  13 23 10.241   +37 30 29.15  2.2211 2.5195  94.9 22.5 .427  92
2019 06 16 10  13 23 10.771   +37 29 50.97  2.2214 2.5194  94.8 22.5 .432  92
2019 06 16 11  13 23 11.303   +37 29 12.77  2.2217 2.5193  94.8 22.5 .436  92
2019 06 16 12  13 23 11.837   +37 28 34.56  2.2219 2.5192  94.8 22.5 .441  92
2019 06 16 13  13 23 12.374   +37 27 56.33  2.2222 2.5191  94.8 22.5 .446  92
2019 06 16 14  13 23 12.914   +37 27 18.08  2.2225 2.5190  94.8 22.5 .451  92
2019 06 16 15  13 23 13.457   +37 26 39.83  2.2227 2.5189  94.7 22.5 .456  92
2019 06 16 16  13 23 14.002   +37 26 01.55  2.2230 2.5188  94.7 22.5 .461  92
2019 06 16 17  13 23 14.550   +37 25 23.26  2.2233 2.5187  94.7 22.5 .466  92
2019 06 16 18  13 23 15.101   +37 24 44.96  2.2235 2.5186  94.7 22.5 .471  92
2019 06 16 19  13 23 15.654   +37 24 06.64  2.2238 2.5185  94.6 22.5 .476  92
2019 06 16 20  13 23 16.210   +37 23 28.30  2.2240 2.5184  94.6 22.5 .481  92
2019 06 16 21  13 23 16.769   +37 22 49.95  2.2243 2.5183  94.6 22.5 .486  91
2019 06 16 22  13 23 17.331   +37 22 11.59  2.2246 2.5182  94.6 22.5 .491  91
2019 06 16 23  13 23 17.895   +37 21 33.21  2.2248 2.5181  94.6 22.5 .496  91
2019 06 17 00  13 23 18.461   +37 20 54.82  2.2251 2.5180  94.5 22.5 .501  91
2019 06 17 01  13 23 19.031   +37 20 16.41  2.2254 2.5179  94.5 22.5 .506  91
2019 06 17 02  13 23 19.603   +37 19 37.98  2.2256 2.5178  94.5 22.5 .511  91
2019 06 17 03  13 23 20.178   +37 18 59.54  2.2259 2.5177  94.5 22.5 .517  91
2019 06 17 04  13 23 20.755   +37 18 21.09  2.2262 2.5176  94.4 22.5 .522  91
2019 06 17 05  13 23 21.335   +37 17 42.62  2.2264 2.5175  94.4 22.5 .527  91
2019 06 17 06  13 23 21.918   +37 17 04.14  2.2267 2.5174  94.4 22.5 .532  91
2019 06 17 07  13 23 22.503   +37 16 25.64  2.2270 2.5173  94.4 22.5 .537  91
2019 06 17 08  13 23 23.091   +37 15 47.12  2.2272 2.5172  94.4 22.5 .543  91
2019 06 17 09  13 23 23.682   +37 15 08.59  2.2275 2.5171  94.3 22.5 .548  91
2019 06 17 10  13 23 24.275   +37 14 30.05  2.2278 2.5170  94.3 22.5 .553  91
2019 06 17 11  13 23 24.871   +37 13 51.49  2.2280 2.5169  94.3 22.5 .559  91
2019 06 17 12  13 23 25.470   +37 13 12.92  2.2283 2.5168  94.3 22.5 .564  91
2019 06 17 13  13 23 26.071   +37 12 34.33  2.2286 2.5167  94.2 22.5 .569  91
2019 06 17 14  13 23 26.675   +37 11 55.73  2.2288 2.5166  94.2 22.5 .575  91
2019 06 17 15  13 23 27.282   +37 11 17.11  2.2291 2.5165  94.2 22.5 .580  91
2019 06 17 16  13 23 27.891   +37 10 38.48  2.2294 2.5164  94.2 22.5 .585  91
2019 06 17 17  13 23 28.503   +37 09 59.84  2.2296 2.5163  94.2 22.5 .591  91
2019 06 17 18  13 23 29.118   +37 09 21.18  2.2299 2.5162  94.1 22.5 .596  91